Tracking 28790 objects as of 19-Apr-2024
HD Live streaming from Space Station
objects crossing your sky now

METEOR 2-17 DEB

Track METEOR 2-17 DEB now!
10-day predictions


NORAD ID: 28992
Int'l Code: 1988-005G
Perigee: 911.3 km
Apogee: 920.6 km
Inclination: 82.5 °
Period: 103.2 minutes
Semi major axis: 7286 km
RCS: 0.0128 m2 (small)
Launch date: January 30, 1988
Source: Commonwealth of Independent States (former USSR) (CIS)
Launch site: PLESETSK MISSILE AND SPACE COMPLEX (PKMTR)

Note: This is SATELLITE DEBRIS
Your satellite tracking list
Your tracking list is empty




NASA's NSSDC Master Catalog

Two Line Element Set (TLE):
1 28992U 88005G   24106.54486205  .00003275  00000-0  23939-2 0  9993
2 28992  82.5398 205.5484 0006392 124.3547 249.6054 13.95686082549771
Source of the keplerian elements: AFSPC